Regional Weather Roundup
Issued by NWS

Home | Current Version | Previous Version | Graphics & Text | Print | Product List | Glossary On
Versions: 1 2 3 4 5 6 7 8 9 10 11 12 13 14 15 16 17 18 19 20 21 22 23 24 25 26 27 28 29 30 31 32 33 34 35 36 37 38 39 40 41 42 43 44 45 46 47 48 49 50
000
ASUS43 KBIS 270302
RWRND

NORTH DAKOTA REGIONAL WEATHER ROUNDUP
NATIONAL WEATHER SERVICE BISMARCK ND
1000 PM CDT MON SEP 26 2016

NOTE: "FAIR" INDICATES FEW OR NO CLOUDS BELOW 12,000 FEET WITH NO
SIGNIFICANT WEATHER AND/OR OBSTRUCTIONS TO VISIBILITY.


NDZ001>003-009>011-017-270400-
NORTHWEST NORTH DAKOTA

CITY           SKY/WX    TMP DP  RH WIND       PRES   REMARKS
WILLISTON      CLEAR     49  41  74 CALM      30.08F
MINOT          CLEAR     54  38  54 W8        30.05S
MINOT AFB      CLEAR     47  39  74 W9        30.04S
$$

NDZ018>021-031>035-040>046-270400-
SOUTHWEST NORTH DAKOTA

CITY           SKY/WX    TMP DP  RH WIND       PRES   REMARKS
BISMARCK       CLEAR     52  38  58 W3        30.08S
DICKINSON      CLEAR     49  38  65 W5        30.10F
GARRISON         N/A     47  39  74 NW6       30.07S
HETTINGER ARPT CLEAR     45  39  79 W5        30.15F
$$

NDZ004>008-012>016-024-026-027-054-270400-
NORTHEAST NORTH DAKOTA

CITY           SKY/WX    TMP DP  RH WIND       PRES   REMARKS
GRAND FORKS    CLEAR     45  38  76 NW7       29.94R
GRND FRKS AFB  CLEAR     46  37  68 NW5       29.94S
DEVILS LAKE    CLEAR     50  38  63 NW12      30.00S
$$

NDZ022-023-025-028>030-036>039-047>053-270400-
SOUTHEAST NORTH DAKOTA

CITY           SKY/WX    TMP DP  RH WIND       PRES   REMARKS
FARGO          CLEAR     54  31  41 W13       29.94F
JAMESTOWN      CLEAR     48  38  68 NW9       30.00S
$$





USA.gov is the U.S. government's official web portal to all federal, state and local government web resources and services.